TimeEST,TemperatureF,Dew PointF,Humidity,Sea Level PressureIn,VisibilityMPH,Wind Direction,Wind SpeedMPH,Gust SpeedMPH,PrecipitationIn,Events,Conditions,WindDirDegrees,DateUTC
12:15 AM,32.0,32.0,100,30.34,10.0,Calm,Calm,-,N/A,,Clear,0,2012-12-01 05:15:00
12:35 AM,32.0,32.0,100,30.34,10.0,Calm,Calm,-,N/A,,Clear,0,2012-12-01 05:35:00
12:55 AM,32.0,32.0,100,30.34,10.0,Calm,Calm,-,N/A,,Clear,0,2012-12-01 05:55:00
1:15 AM,32.0,32.0,100,30.34,10.0,Calm,Calm,-,N/A,,Clear,0,2012-12-01 06:15:00
1:35 AM,32.0,32.0,100,30.34,10.0,Calm,Calm,-,N/A,,Clear,0,2012-12-01 06:35:00
1:55 AM,32.0,32.0,100,30.34,10.0,Calm,Calm,-,N/A,,Clear,0,2012-12-01 06:55:00
2:15 AM,32.0,32.0,100,30.34,10.0,Calm,Calm,-,N/A,,Clear,0,2012-12-01 07:15:00
2:35 AM,32.0,32.0,100,30.34,10.0,Calm,Calm,-,N/A,,Clear,0,2012-12-01 07:35:00
2:55 AM,32.0,32.0,100,30.34,7.0,Calm,Calm,-,N/A,,Clear,0,2012-12-01 07:55:00
3:15 AM,30.2,30.2,100,30.34,10.0,Calm,Calm,-,N/A,,Clear,0,2012-12-01 08:15:00
3:35 AM,32.0,32.0,100,30.34,10.0,Calm,Calm,-,N/A,,Clear,0,2012-12-01 08:35:00
3:55 AM,30.2,30.2,100,30.34,7.0,Calm,Calm,-,N/A,,Clear,0,2012-12-01 08:55:00
4:15 AM,30.2,30.2,100,30.34,10.0,Calm,Calm,-,N/A,,Clear,0,2012-12-01 09:15:00
4:35 AM,30.2,30.2,100,30.34,10.0,Calm,Calm,-,N/A,,Clear,0,2012-12-01 09:35:00
4:55 AM,30.2,30.2,100,30.34,10.0,Calm,Calm,-,N/A,,Clear,0,2012-12-01 09:55:00
5:15 AM,30.2,30.2,100,30.35,10.0,Calm,Calm,-,N/A,,Clear,0,2012-12-01 10:15:00
5:35 AM,30.2,30.2,100,30.35,10.0,Calm,Calm,-,N/A,,Clear,0,2012-12-01 10:35:00
5:55 AM,30.2,30.2,100,30.36,10.0,Calm,Calm,-,N/A,,Clear,0,2012-12-01 10:55:00
6:15 AM,30.2,30.2,100,30.36,7.0,Calm,Calm,-,N/A,,Clear,0,2012-12-01 11:15:00
6:35 AM,30.2,30.2,100,30.36,10.0,Calm,Calm,-,N/A,,Clear,0,2012-12-01 11:35:00
6:55 AM,30.2,30.2,100,30.37,7.0,Calm,Calm,-,N/A,,Clear,0,2012-12-01 11:55:00
7:15 AM,30.2,30.2,100,30.38,10.0,Calm,Calm,-,N/A,,Clear,0,2012-12-01 12:15:00
7:35 AM,30.2,30.2,100,30.38,10.0,Calm,Calm,-,N/A,,Clear,0,2012-12-01 12:35:00
7:55 AM,32.0,32.0,100,30.39,10.0,Calm,Calm,-,N/A,,Clear,0,2012-12-01 12:55:00
8:15 AM,33.8,33.8,100,30.40,10.0,Calm,Calm,-,N/A,,Clear,0,2012-12-01 13:15:00
8:35 AM,35.6,35.6,100,30.41,10.0,Calm,Calm,-,N/A,,Scattered Clouds,0,2012-12-01 13:35:00
8:55 AM,37.4,37.4,100,30.41,10.0,Calm,Calm,-,N/A,,Scattered Clouds,0,2012-12-01 13:55:00
9:15 AM,42.8,39.2,87,30.41,10.0,Calm,Calm,-,N/A,,Clear,0,2012-12-01 14:15:00
9:35 AM,46.4,41.0,81,30.42,10.0,Calm,Calm,-,N/A,,Clear,0,2012-12-01 14:35:00
9:55 AM,50.0,42.8,76,30.42,10.0,Calm,Calm,-,N/A,,Clear,0,2012-12-01 14:55:00
10:15 AM,53.6,42.8,67,30.41,10.0,SW,3.5,-,N/A,,Clear,220,2012-12-01 15:15:00
10:35 AM,55.4,42.8,63,30.41,10.0,SSW,4.6,-,N/A,,Clear,210,2012-12-01 15:35:00
10:55 AM,59.0,42.8,55,30.40,10.0,Calm,Calm,-,N/A,,Clear,0,2012-12-01 15:55:00
11:15 AM,60.8,41.0,48,30.39,10.0,WSW,5.8,-,N/A,,Clear,250,2012-12-01 16:15:00
11:35 AM,60.8,42.8,52,30.38,10.0,SSW,6.9,-,N/A,,Clear,210,2012-12-01 16:35:00
11:55 AM,60.8,42.8,52,30.37,10.0,SSW,4.6,-,N/A,,Clear,210,2012-12-01 16:55:00
12:15 PM,62.6,42.8,48,30.36,10.0,WSW,3.5,-,N/A,,Clear,240,2012-12-01 17:15:00
12:35 PM,62.6,42.8,48,30.35,10.0,Calm,Calm,-,N/A,,Clear,0,2012-12-01 17:35:00
12:55 PM,64.4,44.6,49,30.35,10.0,South,4.6,-,N/A,,Clear,180,2012-12-01 17:55:00
1:15 PM,64.4,44.6,49,30.34,10.0,SSW,6.9,-,N/A,,Clear,200,2012-12-01 18:15:00
1:35 PM,64.4,44.6,49,30.33,10.0,South,6.9,-,N/A,,Clear,180,2012-12-01 18:35:00
1:55 PM,64.4,44.6,49,30.33,10.0,WSW,3.5,-,N/A,,Clear,250,2012-12-01 18:55:00
2:15 PM,64.4,44.6,49,30.33,10.0,WSW,5.8,-,N/A,,Clear,240,2012-12-01 19:15:00
2:35 PM,64.4,42.8,45,30.33,10.0,Calm,Calm,-,N/A,,Clear,0,2012-12-01 19:35:00
2:55 PM,64.4,42.8,45,30.33,10.0,Calm,Calm,-,N/A,,Clear,0,2012-12-01 19:55:00
3:15 PM,64.4,42.8,45,30.33,10.0,Calm,Calm,-,N/A,,Clear,0,2012-12-01 20:15:00
3:35 PM,64.4,42.8,45,30.33,10.0,Calm,Calm,-,N/A,,Clear,0,2012-12-01 20:35:00
3:55 PM,62.6,42.8,48,30.33,10.0,Calm,Calm,-,N/A,,Clear,0,2012-12-01 20:55:00
4:15 PM,62.6,44.6,52,30.33,10.0,Calm,Calm,-,N/A,,Clear,0,2012-12-01 21:15:00
4:35 PM,60.8,44.6,55,30.33,10.0,Calm,Calm,-,N/A,,Clear,0,2012-12-01 21:35:00
4:55 PM,55.4,44.6,67,30.33,10.0,Calm,Calm,-,N/A,,Clear,0,2012-12-01 21:55:00
5:15 PM,53.6,44.6,72,30.33,10.0,Calm,Calm,-,N/A,,Clear,0,2012-12-01 22:15:00
5:35 PM,51.8,42.8,71,30.34,10.0,Calm,Calm,-,N/A,,Clear,0,2012-12-01 22:35:00
5:55 PM,48.2,42.8,82,30.35,10.0,Calm,Calm,-,N/A,,Clear,0,2012-12-01 22:55:00
6:15 PM,46.4,41.0,81,30.35,10.0,Calm,Calm,-,N/A,,Clear,0,2012-12-01 23:15:00
6:35 PM,44.6,41.0,87,30.36,10.0,Calm,Calm,-,N/A,,Clear,0,2012-12-01 23:35:00
6:55 PM,42.8,41.0,93,30.36,10.0,Calm,Calm,-,N/A,,Clear,0,2012-12-01 23:55:00
7:15 PM,42.8,41.0,93,30.36,10.0,Calm,Calm,-,N/A,,Clear,0,2012-12-02 00:15:00
7:35 PM,41.0,39.2,93,30.37,10.0,Calm,Calm,-,N/A,,Clear,0,2012-12-02 00:35:00
7:55 PM,41.0,41.0,100,30.37,10.0,Calm,Calm,-,N/A,,Clear,0,2012-12-02 00:55:00
8:15 PM,41.0,39.2,93,30.38,10.0,Calm,Calm,-,N/A,,Clear,0,2012-12-02 01:15:00
8:35 PM,39.2,39.2,100,30.37,10.0,Calm,Calm,-,N/A,,Clear,0,2012-12-02 01:35:00
8:55 PM,39.2,39.2,100,30.37,7.0,Calm,Calm,-,N/A,,Clear,0,2012-12-02 01:55:00
9:15 PM,37.4,37.4,100,30.38,10.0,Calm,Calm,-,N/A,,Clear,0,2012-12-02 02:15:00
9:35 PM,37.4,37.4,100,30.38,10.0,Calm,Calm,-,N/A,,Clear,0,2012-12-02 02:35:00
9:55 PM,37.4,37.4,100,30.38,7.0,Calm,Calm,-,N/A,,Clear,0,2012-12-02 02:55:00
10:15 PM,37.4,37.4,100,30.38,10.0,Calm,Calm,-,N/A,,Clear,0,2012-12-02 03:15:00
10:35 PM,35.6,35.6,100,30.38,7.0,Calm,Calm,-,N/A,,Clear,0,2012-12-02 03:35:00
10:55 PM,35.6,35.6,100,30.38,7.0,Calm,Calm,-,N/A,,Clear,0,2012-12-02 03:55:00
11:15 PM,35.6,35.6,100,30.38,7.0,Calm,Calm,-,N/A,,Clear,0,2012-12-02 04:15:00
11:35 PM,35.6,35.6,100,30.37,7.0,Calm,Calm,-,N/A,,Clear,0,2012-12-02 04:35:00
11:55 PM,35.6,35.6,100,30.38,7.0,Calm,Calm,-,N/A,,Clear,0,2012-12-02 04:55:00